Погода в Юшково

Россия / Республика Марий Эл     56°42′43″N   48°05′04″E
В апреле 2022 года жителям России запретили посещать сайт meteo.paraplan.net по решению Генеральной прокуратуры. Аудитория сайта уменьшилась в 10 раз. Владельцы сайта не видят смысла в поддержке погодного сервера в таких условиях. Сайт будет закрыт в октябре.
темп.,
°C
ветер,
м/с
пор.,
м/с
влажн.,
%
обл.,
%
осадки,
мм/ч
давл.,
гПа
погр.,
м
30 сентября, пт
пт3000:00+6в2498100 0.1 1017166
03:00+6вюв2398100 0.1 1019115
06:00+7юв2497100 0.1 1021159
09:00+8юв239166 0.1 1022290
12:00+11ююв3382100 0.0 1023612
15:00+11ююв3582100 0.0 1023579
18:00+10юв3786100 0.0 1024323
21:00+9юв4891100 0.0 1024238
1 октября, сб
сб100:00+8юв4996100 0.0 1024260
03:00+7юв389777 0.0 1024203
06:00+8ююв499599 0.0 1024254
09:00+11ююв598243 0.0 1023402
12:00+14ю5870100 0.0 1021717
15:00+15ю587399 0.0 1020939
18:00+13ююв41288100 1.5 1019530
21:00+12ююв51386100 1.9 1017481
2 октября, вс
вс200:00+12ююв51387100 0.5 1016438
03:00+12ююв6148693 0.6 1014430
06:00+12ююв61585100 0.0 1012477
09:00+14ю71481100 0.1 1011726
12:00+16ю71280100 0.4 1010920
15:00+16ююз5983100 0.6 10101019
18:00+13ююз3991100 0.1 1010271
21:00+13ююз379187 0.1 1011201
3 октября, пн
пн300:00+12ююз2394100 0.0 101173
03:00+11ююв249596 0.0 101169
06:00+13ююв31097100 0.0 1011356
09:00+16ююв61384100 0.1 1011612
12:00+19ю61366100 0.0 1011798
15:00+19ююв71459100 0.0 1012919
18:00+16ююв71661100 0.0 1013805
21:00+16ююв71657100 0.0 1014905
4 октября, вт
вт400:00+15ю71553100 0.0 1015943
03:00+14ююв71552100 0.0 1016825
06:00+13ююв71548100 0.0 1017855
09:00+13ююв7134592 0.0 1019960
12:00+14ю71544100 0.0 10201340
15:00+10ю51271100 0.4 10211023
18:00+10ю61384100 0.3 1023834
21:00+10ю51181100 0.3 1023634